EW6810 North Vancouver CA current weather conditions

sailwx.info

Wind from 233

Air temperature 15.6° C
Dewpoint 12.1° C

Last reported at 2020-Jul-08 03:01 UTC.
Time now 2020-Jul-08 03:56 UTC

Location: N 49°22' W 123°06'.
View on Google Maps.

See reports from other nearby stations

  
Tides and Currents Weather Stations Pressure Air Temp Water Temp Dewpoint Dewpoint Depression Visibility Wind Speed Wind Dir Waves Ship Positions
date/time (UTC)wind fromknots sea level pressurealtimeterstation pressurevisibilityair tempwater tempwave heightnotes
2020-Jul-08 03:01 233 15.6
2020-Jul-08 02:56 233 15.6
2020-Jul-08 02:50 233 15.6
2020-Jul-08 02:47 233 15.6
2020-Jul-08 02:41 233 15.6
2020-Jul-08 02:36 233 15.6
2020-Jul-08 02:31 233 15.6
2020-Jul-08 02:25 233 15.6
2020-Jul-08 02:20 233 15.6
2020-Jul-08 02:18 233 15.6
2020-Jul-08 02:06 233 15.6
2020-Jul-08 02:02 233 15.6
2020-Jul-08 01:56 233 15.6
2020-Jul-08 01:51 232 15.6
2020-Jul-08 01:46 232 15.6
2020-Jul-08 01:41 232 15.6
2020-Jul-08 01:35 232 15.6
2020-Jul-08 01:32 232 15.6
2020-Jul-08 01:26 232 15.6
2020-Jul-08 01:20 232 15.6
2020-Jul-08 01:16 232 15.6
2020-Jul-08 01:11 232 15.6
2020-Jul-08 01:05 232 15.6
2020-Jul-08 01:01 232 15.6
2020-Jul-08 00:55 232 15.6
2020-Jul-08 00:50 232 15.6
2020-Jul-08 00:46 232 15.6
2020-Jul-08 00:41 233 0 gusting 1 15.6
2020-Jul-08 00:36 153 15.6
2020-Jul-08 00:32 153 15.6
2020-Jul-08 00:26 155 15.6
2020-Jul-08 00:20 120 15.6
2020-Jul-08 00:16 116 15.6
2020-Jul-08 00:11 185 15.6
2020-Jul-08 00:05 190 16.1
2020-Jul-08 00:02 191 16.1
2020-Jul-07 23:55 173 16.1
2020-Jul-07 23:50 173 16.1
2020-Jul-07 23:46 173 16.1
2020-Jul-07 23:40 173 0 gusting 2 16.1
2020-Jul-07 23:35 111 16.1
2020-Jul-07 23:31 111 16.1
2020-Jul-07 23:25 159 0 gusting 3 16.1
2020-Jul-07 23:21 262 0 gusting 3 16.1
2020-Jul-07 23:17 360 0 gusting 3 16.7
2020-Jul-07 23:10 248 0 gusting 2 16.7
2020-Jul-07 23:05 304 16.7
2020-Jul-07 23:01 209 16.7
2020-Jul-07 22:55 188 16.7
2020-Jul-07 22:50 192 16.7
2020-Jul-07 22:45 192 0 gusting 2 16.7
2020-Jul-07 22:41 144 16.7
2020-Jul-07 22:35 136 16.7
2020-Jul-07 22:31 134 17.2
2020-Jul-07 22:25 017 0 gusting 3 17.2
2020-Jul-07 22:20 240 1 gusting 3 17.2
2020-Jul-07 22:16 159 17.2
2020-Jul-07 22:10 215 0 gusting 5 17.2
2020-Jul-07 22:05 178 0 gusting 6 17.2
2020-Jul-07 22:01 148 1 gusting 6 16.7
2020-Jul-07 21:55 157 17.2
2020-Jul-07 21:50 218 1 gusting 6 17.2
2020-Jul-07 21:46 198 1 gusting 6 17.2
2020-Jul-07 21:40 136 0 gusting 4 17.2
2020-Jul-07 21:35 188 0 gusting 6 17.2
2020-Jul-07 21:31 167 0 gusting 6 17.2
2020-Jul-07 21:26 195 0 gusting 4 17.2
2020-Jul-07 21:00 213 1 gusting 4 16.7
2020-Jul-07 20:55 263 1 gusting 5 17.2
2020-Jul-07 20:50 276 2 gusting 4 16.7
2020-Jul-07 20:46 259 16.7
2020-Jul-07 20:40 164 1 gusting 6 16.7
2020-Jul-07 20:35 143 0 gusting 6 16.7
2020-Jul-07 20:31 252 0 gusting 5 16.7
2020-Jul-07 20:25 291 0 gusting 5 16.7
2020-Jul-07 20:20 234 0 gusting 4 16.7
2020-Jul-07 17:10 344 12.8
2020-Jul-07 17:00 086 0 gusting 2 12.8
2020-Jul-07 16:55 304 12.8
2020-Jul-07 16:50 037 12.8
2020-Jul-07 16:45 355 12.2
2020-Jul-07 16:35 355 12.2
2020-Jul-07 16:30 355 12.2
2020-Jul-07 16:25 055 0 gusting 1 12.2
2020-Jul-07 16:17 063 12.2
2020-Jul-07 16:11 063 12.2
2020-Jul-07 16:05 022 11.7
2020-Jul-07 13:15 237 12.2
2020-Jul-07 13:10 237 12.2
2020-Jul-07 13:05 237 12.2
2020-Jul-07 13:01 267 12.2
2020-Jul-07 12:55 266 0 gusting 2 12.2
2020-Jul-07 12:50 009 0 gusting 2 12.8
2020-Jul-07 12:45 013 12.8
2020-Jul-07 12:40 013 12.8
2020-Jul-07 12:35 013 0 gusting 2 12.8
2020-Jul-07 12:30 321 12.8
2020-Jul-07 12:25 321 12.8
2020-Jul-07 12:20 321 0 gusting 3 12.8
2020-Jul-07 12:15 026 13.3
2020-Jul-07 12:10 026 0 gusting 2 13.3
2020-Jul-07 12:05 288 13.3
2020-Jul-07 12:00 288 13.3
2020-Jul-07 11:55 288 13.3
2020-Jul-07 11:50 288 13.3
2020-Jul-07 11:45 288 13.3
2020-Jul-07 11:40 288 0 gusting 1 13.3
2020-Jul-07 11:35 288 13.3
2020-Jul-07 11:25 349 13.3
2020-Jul-07 11:20 059 1 gusting 4 13.3
2020-Jul-07 11:10 227 13.3
2020-Jul-07 11:05 227 13.3
2020-Jul-07 10:55 227 13.3
2020-Jul-07 10:50 212 13.3
2020-Jul-07 10:40 209 13.3
2020-Jul-07 10:35 119 13.3
2020-Jul-07 10:25 202 13.3
2020-Jul-07 10:20 331 13.3
2020-Jul-07 10:15 331 13.3
2020-Jul-07 10:10 024 13.3
2020-Jul-07 10:05 024 13.3
2020-Jul-07 10:00 024 13.3
2020-Jul-07 09:55 024 13.3
2020-Jul-07 09:45 024 13.3
2020-Jul-07 09:40 024 13.3
2020-Jul-07 09:35 024 13.3
2020-Jul-07 09:30 024 13.3
2020-Jul-07 09:25 024 13.3
2020-Jul-07 09:20 024 13.3
2020-Jul-07 09:10 024 13.3
2020-Jul-07 09:05 024 13.3
2020-Jul-07 08:55 024 13.3
2020-Jul-07 08:50 024 13.3
2020-Jul-07 08:45 024 13.3
2020-Jul-07 08:40 024 13.3
2020-Jul-07 08:35 024 13.3
2020-Jul-07 08:25 023 13.3
2020-Jul-07 08:20 023 13.3
2020-Jul-07 08:15 023 13.3
2020-Jul-07 08:05 023 13.3
2020-Jul-07 08:02 023 13.3
2020-Jul-07 07:55 023 13.3
2020-Jul-07 07:51 023 13.3
2020-Jul-07 07:47 023 13.3
2020-Jul-07 07:40 023 13.3
2020-Jul-07 07:36 023 13.3
2020-Jul-07 07:31 023 13.3
2020-Jul-07 07:25 023 13.3
2020-Jul-07 07:21 023 13.3
2020-Jul-07 07:16 023 13.9
2020-Jul-07 07:11 023 13.9
2020-Jul-07 07:05 023 13.9
2020-Jul-07 07:01 023 0 gusting 1 13.9
2020-Jul-07 06:55 023 13.9
2020-Jul-07 06:51 023 13.9
2020-Jul-07 06:46 023 13.9
2020-Jul-07 06:40 023 0 gusting 2 13.9
2020-Jul-07 06:35 023 0 gusting 2 13.9
2020-Jul-07 06:31 024 13.9
2020-Jul-07 06:25 024 13.9
2020-Jul-07 06:21 026 13.9
2020-Jul-07 06:17 333 0 gusting 2 13.9
2020-Jul-07 06:10 333 13.9
2020-Jul-07 06:06 333 13.9
2020-Jul-07 06:01 333 14.4
2020-Jul-07 05:55 333 14.4
2020-Jul-07 05:50 333 14.4
2020-Jul-07 05:47 333 14.4
2020-Jul-07 05:40 333 0 gusting 1 14.4
2020-Jul-07 05:36 333 0 gusting 1 14.4
2020-Jul-07 05:32 332 14.4
2020-Jul-07 05:26 332 15.0
2020-Jul-07 05:21 332 15.0
2020-Jul-07 05:16 332 15.0
2020-Jul-07 05:11 332 15.0
2020-Jul-07 05:06 332 15.0
2020-Jul-07 05:01 332 15.6
2020-Jul-07 04:55 332 15.6
2020-Jul-07 04:50 332 0 gusting 1 15.6
2020-Jul-07 04:46 329 15.6
2020-Jul-07 04:41 329 0 gusting 1 15.6
2020-Jul-07 04:35 315 0 gusting 2 16.1
2020-Jul-07 04:32 315 0 gusting 2 16.1
2020-Jul-07 04:25 311 0 gusting 1 16.1
2020-Jul-07 04:20 311 0 gusting 1 16.7
2020-Jul-07 04:18 311 16.7
2020-Jul-07 04:10 311 16.7
2020-Jul-07 04:05 311 16.7
2020-Jul-07 04:01 311 17.2
2020-Jul-07 03:55 311 17.2
2020-Jul-07 03:50 311 17.2
2020-Jul-07 03:47 311 17.2
2020-Jul-07 03:40 311 17.2
2020-Jul-07 03:35 311 17.8
2020-Jul-07 03:31 311 17.8
2020-Jul-07 03:25 111 17.8
2020-Jul-07 03:20 111 18.3
2020-Jul-07 03:16 166 1 gusting 2 18.3
2020-Jul-07 03:10 268 18.3
2020-Jul-07 03:05 184 18.3
2020-Jul-07 03:01 149 18.9
2020-Jul-07 02:55 321 0 gusting 3 18.9
2020-Jul-07 02:50 309 0 gusting 5 19.4
2020-Jul-07 02:46 165 0 gusting 5 19.4
2020-Jul-07 02:40 295 0 gusting 5 19.4
2020-Jul-07 02:36 118 0 gusting 3 19.4
2020-Jul-07 02:31 217 0 gusting 3 19.4
2020-Jul-07 02:25 269 0 gusting 5 19.4
2020-Jul-07 02:16 239 0 gusting 4 20.0
2020-Jul-07 02:10 264 0 gusting 4 20.0
2020-Jul-07 02:05 116 20.0
2020-Jul-07 02:01 145 0 gusting 6 20.0
2020-Jul-07 01:55 150 0 gusting 5 20.0
2020-Jul-07 01:51 225 1 gusting 5 20.0
2020-Jul-07 01:46 229 0 gusting 6 20.6
2020-Jul-07 01:40 259 2 gusting 6 20.6
2020-Jul-07 01:35 234 0 gusting 3 20.6
2020-Jul-07 01:33 263 1 gusting 6 20.6
2020-Jul-07 01:26 202 2 gusting 6 20.6
2020-Jul-07 01:21 310 1 gusting 6 20.6
2020-Jul-07 01:16 140 0 gusting 6 20.6
2020-Jul-07 01:10 130 1 gusting 6 20.6
2020-Jul-07 01:05 331 2 gusting 8 20.6
2020-Jul-07 01:01 270 3 gusting 8 20.6
2020-Jul-07 00:55 305 1 gusting 7 20.6
2020-Jul-07 00:50 201 1 gusting 6 21.1
2020-Jul-07 00:46 172 1 gusting 6 21.1
2020-Jul-07 00:40 069 0 gusting 4 21.1
2020-Jul-07 00:35 164 2 gusting 4 21.1
2020-Jul-07 00:30 232 0 gusting 3 21.1
2020-Jul-07 00:25 059 21.1
2020-Jul-07 00:20 158 1 gusting 7 21.1
2020-Jul-07 00:16 237 2 gusting 7 21.1
2020-Jul-07 00:10 206 1 gusting 4 21.7
2020-Jul-07 00:05 229 0 gusting 4 21.1
2020-Jul-07 00:01 285 1 gusting 5 21.1
2020-Jul-06 23:56 141 2 gusting 5 21.1
2020-Jul-06 23:50 225 0 gusting 6 21.1
2020-Jul-06 23:45 092 1 gusting 6 21.1
2020-Jul-06 23:40 257 0 gusting 4 20.6
2020-Jul-06 23:35 191 0 gusting 4 20.6
2020-Jul-06 23:31 144 0 gusting 5 21.1
2020-Jul-06 23:25 173 1 gusting 4 21.7
2020-Jul-06 23:20 196 1 gusting 5 21.7
2020-Jul-06 23:15 314 1 gusting 5 21.7
2020-Jul-06 23:10 190 1 gusting 6 21.7
2020-Jul-06 23:05 267 1 gusting 6 21.1
2020-Jul-06 23:00 183 1 gusting 6 21.1
2020-Jul-06 22:55 205 2 gusting 7 21.7
2020-Jul-06 22:50 184 4 gusting 9 21.7
2020-Jul-06 22:45 237 2 gusting 9 21.7
2020-Jul-06 22:40 182 1 gusting 7 21.7
2020-Jul-06 22:35 273 2 gusting 7 21.7
2020-Jul-06 22:30 252 1 gusting 5 21.7
2020-Jul-06 22:25 162 1 gusting 5 21.7
2020-Jul-06 22:20 237 1 gusting 7 21.7
2020-Jul-06 22:15 207 2 gusting 7 21.7
2020-Jul-06 22:10 309 1 gusting 8 21.7
2020-Jul-06 22:05 075 3 gusting 8 21.7
2020-Jul-06 22:00 182 2 gusting 7 21.7
2020-Jul-06 21:55 178 3 gusting 7 21.7
2020-Jul-06 21:50 289 1 gusting 6 21.7
2020-Jul-06 21:45 257 2 gusting 6 21.1
2020-Jul-06 21:40 201 2 gusting 6 21.7
2020-Jul-06 21:35 151 1 gusting 6 21.7
2020-Jul-06 21:30 278 1 gusting 6 21.1
2020-Jul-06 21:25 272 2 gusting 5 21.7
2020-Jul-06 21:20 130 1 gusting 6 21.7
2020-Jul-06 21:15 296 3 gusting 6 21.7
2020-Jul-06 21:10 246 3 gusting 7 21.7
2020-Jul-06 21:05 059 1 gusting 5 21.1
2020-Jul-06 20:55 232 0 gusting 6 20.6
2020-Jul-06 20:50 272 0 gusting 5 20.6
2020-Jul-06 20:40 193 0 gusting 6 20.6
2020-Jul-06 20:35 227 2 gusting 6 20.6
2020-Jul-06 20:30 255 2 gusting 6 20.0
2020-Jul-06 20:25 193 1 gusting 5 20.0
2020-Jul-06 20:20 092 0 gusting 7 20.0
2020-Jul-06 20:15 171 2 gusting 7 20.6
2020-Jul-06 20:10 186 1 gusting 4 20.6
2020-Jul-06 20:05 336 0 gusting 4 20.0
2020-Jul-06 19:55 193 1 gusting 5 18.9
2020-Jul-06 19:50 200 0 gusting 6 18.9
2020-Jul-06 19:45 288 1 gusting 6 18.9
2020-Jul-06 19:40 171 1 gusting 6 18.3
2020-Jul-06 19:35 222 2 gusting 6 18.3
2020-Jul-06 19:25 275 1 gusting 8 18.9
2020-Jul-06 19:20 262 1 gusting 8 18.9
2020-Jul-06 19:15 285 1 gusting 6 18.9
2020-Jul-06 19:10 273 2 gusting 6 19.4
2020-Jul-06 19:05 161 2 gusting 6 19.4
2020-Jul-06 19:00 261 2 gusting 6 20.0
2020-Jul-06 18:50 176 0 gusting 9 19.4
2020-Jul-06 18:48 322 1 gusting 6 19.4
2020-Jul-06 18:40 227 2 gusting 6 19.4
2020-Jul-06 18:35 215 1 gusting 5 18.9
2020-Jul-06 18:32 282 1 gusting 7 18.9
2020-Jul-06 18:25 194 2 gusting 7 18.9
2020-Jul-06 18:20 242 1 gusting 6 18.3
2020-Jul-06 18:16 133 1 gusting 6 18.3
2020-Jul-06 18:11 166 1 gusting 6 17.8
2020-Jul-06 18:05 170 1 gusting 6 17.8
2020-Jul-06 18:01 179 0 gusting 6 17.8
2020-Jul-06 17:56 106 2 gusting 6 17.8
2020-Jul-06 17:50 200 0 gusting 6 17.8
2020-Jul-06 17:46 182 1 gusting 6 17.8
2020-Jul-06 17:40 094 1 gusting 6 17.8
2020-Jul-06 17:36 177 2 gusting 6 17.8
2020-Jul-06 17:31 117 1 gusting 6 17.8
2020-Jul-06 17:25 042 1 gusting 6 17.8
2020-Jul-06 17:21 269 0 gusting 6 17.2
2020-Jul-06 17:16 298 1 gusting 5 17.2
2020-Jul-06 17:10 296 17.2
2020-Jul-06 17:05 280 1 gusting 6 17.2
2020-Jul-06 17:01 315 0 gusting 6 17.2
2020-Jul-06 16:55 289 0 gusting 4 17.2
2020-Jul-06 16:50 291 0 gusting 4 16.7
2020-Jul-06 16:45 204 1 gusting 6 16.7
2020-Jul-06 16:40 187 1 gusting 6 16.1
2020-Jul-06 16:35 062 0 gusting 2 16.1
2020-Jul-06 16:31 328 15.6
2020-Jul-06 16:25 144 0 gusting 3 15.6
2020-Jul-06 16:20 319 0 gusting 3 15.6
2020-Jul-06 16:16 209 0 gusting 3 15.6
2020-Jul-06 16:11 286 0 gusting 2 15.0
2020-Jul-06 16:05 257 15.0
2020-Jul-06 16:00 257 15.0
2020-Jul-06 15:55 257 1 gusting 2 15.0
2020-Jul-06 15:50 230 14.4
2020-Jul-06 15:46 229 14.4
2020-Jul-06 15:40 231 1 gusting 3 14.4
2020-Jul-06 15:35 296 0 gusting 2 13.9
2020-Jul-06 15:30 183 13.9
2020-Jul-06 15:25 156 0 gusting 3 13.9
2020-Jul-06 15:20 242 0 gusting 2 13.9
2020-Jul-06 15:15 110 13.3
2020-Jul-06 15:10 074 13.3
2020-Jul-06 15:05 066 13.3
2020-Jul-06 15:00 066 12.8
2020-Jul-06 14:55 066 12.8
2020-Jul-06 14:50 066 12.8
2020-Jul-06 14:45 066 12.8
2020-Jul-06 14:40 066 12.8
2020-Jul-06 14:35 066 12.2
2020-Jul-06 14:25 069 12.2
2020-Jul-06 14:20 069 12.2
2020-Jul-06 14:15 069 11.7
2020-Jul-06 14:10 069 11.7
2020-Jul-06 14:05 069 11.7
2020-Jul-06 13:55 069 11.7
2020-Jul-06 13:50 069 11.7
2020-Jul-06 13:45 069 11.7
2020-Jul-06 13:40 300 11.7
2020-Jul-06 13:35 300 11.7
2020-Jul-06 13:30 300 0 gusting 1 11.7
2020-Jul-06 13:25 299 11.7
2020-Jul-06 13:16 299 11.7
2020-Jul-06 13:11 299 11.7
2020-Jul-06 13:06 299 11.7
2020-Jul-06 13:01 300 11.7
2020-Jul-06 12:55 299 11.7
2020-Jul-06 12:51 331 11.1
2020-Jul-06 12:49 331 11.1
2020-Jul-06 12:40 013 0 gusting 3 11.1
2020-Jul-06 12:35 012 0 gusting 3 11.1
2020-Jul-06 12:31 330 11.1
2020-Jul-06 12:25 318 11.1
2020-Jul-06 12:20 318 11.1
2020-Jul-06 12:16 318 0 gusting 3 11.1
2020-Jul-06 12:11 360 11.1
2020-Jul-06 12:05 074 11.1
2020-Jul-06 12:01 019 0 gusting 2 11.7
2020-Jul-06 11:56 042 0 gusting 3 11.7
2020-Jul-06 11:51 005 0 gusting 2 11.7
2020-Jul-06 11:46 064 11.7
2020-Jul-06 11:40 064 0 gusting 9 11.7
2020-Jul-06 11:35 193 0 gusting 4 11.7
2020-Jul-06 11:31 355 11.7
2020-Jul-06 11:25 049 1 gusting 8 11.1
2020-Jul-06 11:21 333 0 gusting 6 11.1
2020-Jul-06 11:16 341 1 gusting 6 11.1
2020-Jul-06 11:10 058 0 gusting 5 11.1
2020-Jul-06 11:05 010 0 gusting 6 11.1
2020-Jul-06 11:01 360 0 gusting 6 11.1
2020-Jul-06 10:56 040 11.1
2020-Jul-06 10:50 126 0 gusting 3 11.1
2020-Jul-06 10:45 342 11.7
2020-Jul-06 10:40 343 11.7
2020-Jul-06 10:35 342 11.7
2020-Jul-06 10:31 342 11.7
2020-Jul-06 10:26 342 1 gusting 4 11.7
2020-Jul-06 10:20 319 1 gusting 4 11.7
2020-Jul-06 10:15 342 1 gusting 3 11.7
2020-Jul-06 10:10 051 11.7
2020-Jul-06 10:06 329 11.7
2020-Jul-06 10:01 288 11.7
2020-Jul-06 09:56 344 11.7
2020-Jul-06 09:50 060 0 gusting 3 11.7
2020-Jul-06 09:46 338 11.7
2020-Jul-06 09:40 338 11.7
2020-Jul-06 09:35 338 11.7
2020-Jul-06 09:31 330 0 gusting 2 11.7
2020-Jul-06 09:25 325 11.7
2020-Jul-06 09:20 325 11.7
2020-Jul-06 09:16 325 11.7
2020-Jul-06 09:10 325 0 gusting 2 11.7
2020-Jul-06 09:05 355 11.7
2020-Jul-06 09:01 355 11.7
2020-Jul-06 08:55 355 1 gusting 3 11.7
2020-Jul-06 08:50 024 0 gusting 3 11.7
2020-Jul-06 08:45 040 1 gusting 3 12.2
2020-Jul-06 08:40 355 1 gusting 3 12.2
2020-Jul-06 08:35 325 0 gusting 2 12.2
2020-Jul-06 08:30 322 12.2
2020-Jul-06 08:25 322 12.2
2020-Jul-06 08:20 320 12.2
2020-Jul-06 08:16 319 12.2
2020-Jul-06 08:10 334 0 gusting 3 12.2
2020-Jul-06 08:05 067 12.2
2020-Jul-06 08:01 018 0 gusting 3 12.2
2020-Jul-06 07:55 013 0 gusting 2 12.2
2020-Jul-06 07:50 012 12.2
2020-Jul-06 07:46 012 12.8
2020-Jul-06 07:40 012 0 gusting 3 12.8
2020-Jul-06 07:35 060 12.8
2020-Jul-06 07:30 344 0 gusting 3 12.8
2020-Jul-06 07:25 355 12.8
2020-Jul-06 07:20 030 12.8
2020-Jul-06 07:16 057 12.8
2020-Jul-06 07:10 028 0 gusting 7 12.8
2020-Jul-06 07:05 038 0 gusting 7 12.8
2020-Jul-06 07:00 105 1 gusting 7 12.8
2020-Jul-06 06:55 094 0 gusting 2 12.8
2020-Jul-06 06:50 094 0 gusting 3 12.8
2020-Jul-06 06:45 071 1 gusting 3 12.8
2020-Jul-06 06:40 333 1 gusting 2 12.8
2020-Jul-06 06:35 333 0 gusting 2 12.8
2020-Jul-06 06:30 014 12.8
2020-Jul-06 06:25 005 12.8
2020-Jul-06 06:20 005 0 gusting 3 13.3
2020-Jul-06 06:15 019 13.3
2020-Jul-06 06:10 019 13.3
2020-Jul-06 06:05 021 13.3
2020-Jul-06 06:00 021 13.3
2020-Jul-06 05:55 021 13.3
2020-Jul-06 05:50 021 13.3
2020-Jul-06 05:45 021 0 gusting 2 13.9
2020-Jul-06 05:40 020 0 gusting 2 13.9
2020-Jul-06 05:35 020 13.9
2020-Jul-06 05:30 020 1 gusting 2 13.9
2020-Jul-06 05:25 091 14.4
2020-Jul-06 05:20 091 14.4
2020-Jul-06 05:15 091 14.4
2020-Jul-06 05:10 091 14.4
2020-Jul-06 05:05 091 15.0
2020-Jul-06 05:00 091 15.0
2020-Jul-06 04:55 091 15.0
2020-Jul-06 04:50 091 15.0
2020-Jul-06 04:45 091 15.0
2020-Jul-06 04:40 091 15.0
2020-Jul-06 04:35 091 15.6
2020-Jul-06 04:32 091 15.6
2020-Jul-06 04:25 091 16.1
2020-Jul-06 04:20 091 16.1
2020-Jul-06 04:15 091 16.7
2020-Jul-06 04:10 091 16.7
2020-Jul-06 04:05 092 0 gusting 1 17.2
2020-Jul-06 04:00 092 0 gusting 2 17.2
2020-Jul-06 03:55 092 17.2
2020-Jul-06 03:45 092 17.8
2020-Jul-06 03:40 092 18.3
2020-Jul-06 03:35 092 0 gusting 2 18.3
2020-Jul-06 03:30 165 0 gusting 3 18.3
2020-Jul-06 03:25 169 0 gusting 1 18.9
2020-Jul-06 03:20 169 18.9
2020-Jul-06 03:10 169 18.9
2020-Jul-06 03:05 169 0 gusting 2 19.4